DateTimeUTC,F1_A11,F1_S11,BsB_S11,BsG_S11,BsR_S11,BbsB_S11,BbsG_S11,BbsR_S11,BaB_A11,BaG_A11,BaR_A11,Tu_S11,T_S11,Uu_S11,U_S11,P_S11,T1_A11
2021-09-11T01:00:00Z,00000200,21000000,,,,,,,0000.10,-000.28,-000.26,18.5,25.7,,00.0,0666.1,31.0
2021-09-11T01:01:00Z,00000200,21000000,,,,,,,0000.23,0000.10,-000.10,18.5,25.8,,00.0,0666.1,31.1
2021-09-11T01:02:00Z,00000200,21000000,,,,,,,-000.05,0000.15,0000.28,18.6,25.8,,00.0,0666.1,31.1
2021-09-11T01:03:00Z,00000200,61000000,,,,,,,0000.42,0000.09,0000.17,18.6,25.8,,00.0,0666.1,31.1
2021-09-11T01:04:00Z,00000200,41000000,0000.92,0000.92,0000.90,0000.25,0000.13,0000.38,-000.40,0000.06,-000.06,18.9,25.7,,00.0,0667.1,31.1
2021-09-11T01:05:00Z,00000200,01000000,0000.95,0000.75,0000.69,0000.32,0000.27,0000.39,0000.31,-000.06,-000.04,18.9,25.6,,00.0,0667.1,31.0
2021-09-11T01:06:00Z,00000200,01000000,0001.40,0000.69,0000.70,0000.06,0000.15,0000.03,-000.09,-000.12,0000.06,18.9,25.5,,00.0,0667.1,31.0
2021-09-11T01:07:00Z,00000200,01000000,0001.20,0000.72,0000.75,0000.71,0000.19,0000.39,0000.57,0000.63,0000.06,18.8,25.5,,00.0,0667.1,31.0
2021-09-11T01:08:00Z,00000200,01000000,0001.28,0001.11,0000.54,0000.01,0000.22,0000.34,-000.03,-000.25,0000.08,18.7,25.5,,00.0,0667.1,31.0
2021-09-11T01:09:00Z,00000200,01000000,0001.44,0001.12,0000.53,0000.38,0000.08,0000.15,0000.08,0000.13,0000.12,18.6,25.4,,00.0,0667.1,31.0
2021-09-11T01:10:00Z,00000200,01000000,0001.17,0000.95,0000.71,0000.32,-000.08,0000.32,-000.08,0000.35,0000.16,18.6,25.4,,00.0,0667.1,31.0
2021-09-11T01:11:00Z,00000200,01000000,0001.38,0000.93,0000.67,0000.83,0000.25,0000.32,0000.41,0000.04,0000.45,18.5,25.3,,00.0,0667.1,31.0
2021-09-11T01:12:00Z,00000200,01000000,0001.51,0001.06,0000.69,0000.67,0000.22,0000.30,0000.85,0000.87,0000.23,18.5,25.3,,00.0,0667.1,31.0
2021-09-11T01:13:00Z,00000200,01000000,0001.46,0000.98,0000.71,0000.07,0000.35,-000.07,0000.19,0000.45,0000.42,18.5,25.3,,00.0,0667.1,31.0
2021-09-11T01:14:00Z,00000200,01000000,0001.25,0001.01,0000.69,0000.11,-000.29,0000.34,0000.47,0000.21,0000.34,18.6,25.3,,00.0,0667.1,31.0
2021-09-11T01:15:00Z,00000200,01000000,0001.15,0000.94,0000.63,0000.61,0000.24,0000.25,0000.20,0000.53,0000.09,18.7,25.3,,00.0,0667.1,31.0
2021-09-11T01:16:00Z,00000200,01000000,0001.76,0000.90,0000.85,-000.18,0000.24,0000.34,0000.35,0000.16,0000.47,18.8,25.4,,00.0,0667.2,31.0
2021-09-11T01:17:00Z,00000200,01000000,0000.62,0001.22,0001.03,0000.94,0000.35,0000.33,0000.52,0000.06,0000.02,18.9,25.5,,00.0,0667.2,31.1
2021-09-11T01:18:00Z,00000200,01000000,0001.09,0001.39,0000.98,-000.10,-000.04,0000.47,0000.10,0000.63,0000.32,18.9,25.5,,00.0,0667.2,31.1
2021-09-11T01:19:00Z,00000200,01000000,0001.89,0000.93,0000.50,0000.09,0000.08,0000.42,0000.21,0000.23,0000.10,19.0,25.5,,00.0,0667.3,31.1
2021-09-11T01:20:00Z,00000200,01000000,0001.68,0000.88,0000.37,-000.13,0000.40,0000.08,0000.34,-000.06,0000.41,19.1,25.6,,00.0,0667.3,31.1
2021-09-11T01:21:00Z,00000200,01000000,0001.26,0001.10,0000.88,0000.74,-000.20,0000.26,0000.33,0000.49,-000.07,19.1,25.6,,00.0,0667.3,31.1
2021-09-11T01:22:00Z,00000200,01000000,0001.58,0000.66,0000.71,0000.27,0000.28,0000.33,-000.18,-000.01,0000.07,19.1,25.6,,00.0,0667.3,31.1
2021-09-11T01:23:00Z,00000200,01000000,0001.13,0000.95,0001.07,0000.78,0000.08,0000.07,0000.37,-000.08,0000.15,19.0,25.5,,00.0,0667.3,31.1
2021-09-11T01:24:00Z,00000200,01000000,0001.59,0001.19,0000.48,0000.48,0000.31,0000.16,0000.14,-000.28,0000.05,18.9,25.5,,00.0,0667.2,31.0
2021-09-11T01:25:00Z,00000200,01000000,0001.45,0000.81,0000.64,-000.40,0000.09,0000.25,-000.05,0000.54,-000.01,18.8,25.5,,00.0,0667.2,31.0
2021-09-11T01:26:00Z,00000200,01000000,0001.36,0000.84,0000.64,0000.52,0000.03,0000.39,0000.37,0000.10,0000.41,18.8,25.4,,00.0,0667.2,31.0
2021-09-11T01:27:00Z,00000200,01000000,0001.36,0000.91,0000.69,-000.36,0000.13,0000.33,0000.41,0000.51,0000.33,18.8,25.4,,00.0,0667.2,31.0
2021-09-11T01:28:00Z,00000200,01000000,0001.86,0000.76,0000.78,0000.34,0000.06,0000.56,0000.57,0000.78,0000.39,18.8,25.4,,00.0,0667.2,31.0
2021-09-11T01:29:00Z,00000200,01000000,0001.86,0000.94,0000.58,0000.37,0000.23,0000.32,0000.23,-000.10,0000.08,18.8,25.4,,00.0,0667.3,31.0
2021-09-11T01:30:00Z,00000200,01000000,0001.34,0000.90,0000.93,0000.03,-000.03,0000.50,0000.68,0000.72,0000.73,18.9,25.5,,00.0,0667.3,31.1
2021-09-11T01:31:00Z,00000200,01000000,0002.33,0000.86,0000.67,-000.05,0000.32,-000.09,0000.00,0000.22,0000.41,19.0,25.5,,00.0,0667.3,31.1
2021-09-11T01:32:00Z,00000200,01000000,0001.31,0000.76,0000.71,0000.02,-000.00,0000.21,-000.00,0000.32,0000.06,19.1,25.6,,00.0,0667.3,31.1
2021-09-11T01:33:00Z,00000200,01000000,0001.18,0000.92,0001.04,0000.78,0000.08,0000.29,0000.47,-000.04,-000.07,19.2,25.6,,00.0,0667.3,31.1
2021-09-11T01:34:00Z,00000200,01000000,0001.29,0001.22,0000.64,-000.15,0000.11,0000.37,0000.43,0000.29,0000.28,19.2,25.6,,00.0,0667.3,31.1
2021-09-11T01:35:00Z,00000200,01000000,0001.31,0000.79,0001.03,0000.95,0000.25,0000.37,0000.03,0000.32,-000.21,19.2,25.7,,00.0,0667.3,31.1
2021-09-11T01:36:00Z,00000200,01000000,0001.46,0001.19,0000.63,0000.22,0000.43,-000.04,-000.11,0000.05,-000.03,19.2,25.6,,00.0,0667.3,31.1
2021-09-11T01:37:00Z,00000200,01000000,0001.48,0000.89,0000.85,0000.35,0000.09,0000.13,0000.19,-000.10,0000.36,19.1,25.6,,00.0,0667.2,31.1
2021-09-11T01:38:00Z,00000200,01000000,0000.96,0001.20,0000.70,0000.44,0000.23,0000.22,0000.16,0000.14,-000.23,19.0,25.6,,00.0,0667.2,31.1
2021-09-11T01:39:00Z,00000200,01000000,0001.05,0000.97,0000.75,0000.46,0000.10,0000.28,0000.45,0000.51,0000.27,18.9,25.5,,00.0,0667.2,31.0
2021-09-11T01:40:00Z,00000200,01000000,0000.89,0000.59,0000.85,0000.28,0000.34,-000.06,-000.14,-000.40,0000.03,18.8,25.5,,00.0,0667.2,31.0
2021-09-11T01:41:00Z,00000200,01000000,0001.14,0001.38,0000.64,0000.19,0000.11,0000.28,0000.41,0000.20,0000.26,18.8,25.4,,00.0,0667.2,31.0
2021-09-11T01:42:00Z,00000200,01000000,0001.41,0001.07,0000.63,-000.06,-000.01,0000.25,0000.53,0000.49,0000.42,18.8,25.4,,00.0,0667.2,31.0
2021-09-11T01:43:00Z,00000200,01000000,0001.72,0001.03,0000.68,0000.42,-000.02,0000.10,0000.39,0000.80,0000.58,18.8,25.4,,00.0,0667.2,31.0
2021-09-11T01:44:00Z,00000200,01000000,0001.27,0000.86,0001.07,0000.28,-000.01,0000.18,0000.34,0000.21,0000.43,18.9,25.4,,00.0,0667.2,31.1
2021-09-11T01:45:00Z,00000200,01000000,0001.35,0001.03,0000.63,-000.11,0000.14,0000.32,0000.39,0000.30,-000.19,18.9,25.5,,00.0,0667.2,31.1
2021-09-11T01:46:00Z,00000200,01000000,0001.33,0001.06,0001.09,-000.21,0000.10,0000.46,0000.12,0000.38,0000.66,19.0,25.5,,00.0,0667.2,31.1
2021-09-11T01:47:00Z,00000200,01000000,0000.43,0001.28,0000.86,0000.38,-000.36,0000.23,0000.36,0000.35,0000.13,19.1,25.6,,00.0,0667.2,31.1
2021-09-11T01:48:00Z,00000200,01000000,0001.47,0001.52,0000.89,0000.32,0000.10,0000.41,0000.27,0000.16,-000.06,19.2,25.6,,00.0,0667.2,31.1
2021-09-11T01:49:00Z,00000200,01000000,0001.67,0001.00,0000.60,0000.38,0000.01,0000.00,0000.46,0000.42,0000.39,19.3,25.7,,00.0,0667.3,31.1
2021-09-11T01:50:00Z,00000200,01000000,0001.20,0000.95,0000.84,0000.04,0000.20,-000.01,-000.24,0000.14,-000.33,19.3,25.7,,00.0,0667.3,31.1
2021-09-11T01:51:00Z,00000200,01000000,0001.38,0001.06,0001.08,0000.64,-000.17,-000.01,0000.73,0000.20,0000.59,19.4,25.7,,00.0,0667.3,31.1
2021-09-11T01:52:00Z,00000200,01000000,0001.75,0001.43,0000.86,0000.59,0000.37,0000.13,-000.16,-000.44,-000.13,19.3,25.7,,00.0,0667.3,31.1
2021-09-11T01:53:00Z,00000200,01000000,0000.66,0001.45,0000.84,0000.09,0000.00,0000.06,0000.02,0000.37,0000.16,19.3,25.7,,00.0,0667.3,31.1
2021-09-11T01:54:00Z,00000200,01000000,0001.37,0001.21,0000.68,0000.12,0000.09,0000.09,0000.19,0000.12,-000.08,19.2,25.7,,00.0,0667.3,31.1
2021-09-11T01:55:00Z,00000200,01000000,0001.39,0001.07,0000.85,0000.49,0000.40,0000.16,0000.19,-000.06,0000.37,19.1,25.6,,00.0,0667.3,31.0
2021-09-11T01:56:00Z,00000200,01000000,0001.13,0001.67,0000.91,0000.10,0000.15,-000.06,0000.41,0000.64,-000.03,19.0,25.6,,00.0,0667.3,31.0
2021-09-11T01:57:00Z,00000200,41000000,,,,,,,0000.82,0000.59,0000.91,19.0,25.6,,00.0,0667.4,31.1
2021-09-11T01:58:00Z,00000200,61000000,,,,,,,0000.00,-000.13,0000.00,18.7,25.7,,00.0,0666.3,31.0
2021-09-11T01:59:00Z,00000200,21000000,,,,,,,-000.35,0000.00,-000.02,18.7,25.8,,00.0,0666.3,31.0
